EW4321 Weather Reports


time (UTC)temp
C
wind
direction
speed
KPH
gust
KPH
rain 1hr
cm
rain 24hr
cm
rain mn
cm
humidity
%
barometer
mb
20260505004603 13 203 22.5 33.8 0.00 0.00 0.00 89 1012.9
20260505004104 13 195 17.7 29.0 0.00 0.00 0.00 90 1012.9
20260505003625 13 192 16.1 35.4 0.00 0.00 0.00 90 1012.8
20260505003125 13 190 19.3 35.4 0.00 0.00 0.00 90 1012.8
20260505002625 13 194 22.5 29.0 0.00 0.00 0.00 91 1012.8
20260505002103 13 194 17.7 27.4 0.00 0.00 0.00 91 1012.7
20260505001604 13 190 16.1 29.0 0.00 0.00 0.00 90 1012.7
20260505001104 13 194 17.7 29.0 0.00 0.00 0.00 90 1012.7
20260505000604 13 194 19.3 32.2 0.00 0.00 0.00 90 1012.5
20260505000124 13 190 20.9 32.2 0.00 0.00 0.00 90 1012.6
20260504235604 13 196 19.3 32.2 0.00 0.00 0.00 90 1012.6
20260504235103 13 198 14.5 25.7 0.00 0.00 0.00 90 1012.6
20260504234604 13 192 14.5 25.7 0.00 0.00 0.00 89 1012.6
20260504234103 13 190 17.7 25.7 0.00 0.00 0.00 89 1012.6
20260504233604 13 186 17.7 29.0 0.00 0.00 0.00 89 1012.6
20260504233103 13 192 17.7 29.0 0.00 0.00 0.00 88 1012.6
20260504232626 13 192 17.7 29.0 0.00 0.00 0.00 88 1012.5
20260504232125 13 188 19.3 25.7 0.00 0.00 0.00 88 1012.5
20260504231604 13 191 14.5 27.4 0.00 0.00 0.00 87 1012.6
20260504231104 14 193 17.7 27.4 0.00 0.00 0.00 87 1012.5
20260504230624 14 193 16.1 29.0 0.00 0.00 0.00 86 1012.5
20260504230104 14 191 19.3 29.0 0.00 0.00 0.00 86 1012.5
20260504225604 14 189 17.7 29.0 0.00 0.00 0.00 86 1012.5
20260504225103 15 191 19.3 30.6 0.00 0.00 0.00 85 1012.6
20260504224604 15 190 17.7 30.6 0.00 0.00 0.00 85 1012.6
20260504224103 15 189 19.3 27.4 0.00 0.00 0.00 85 1012.5
20260504223625 15 194 19.3 29.0 0.00 0.00 0.00 85 1012.6
20260504223104 15 186 19.3 32.2 0.00 0.00 0.00 85 1012.6
20260504222604 15 196 22.5 32.2 0.00 0.00 0.00 85 1012.6
20260504222103 15 188 17.7 33.8 0.00 0.00 0.00 85 1012.6
20260504221604 15 196 20.9 33.8 0.00 0.00 0.00 84 1012.5
20260504221104 15 190 19.3 30.6 0.00 0.00 0.00 84 1012.5
20260504220604 15 192 20.9 30.6 0.00 0.00 0.00 84 1012.5
20260504220104 15 188 20.9 29.0 0.00 0.00 0.00 84 1012.5
20260504215603 15 184 17.7 30.6 0.00 0.00 0.00 85 1012.5
20260504215104 15 189 20.9 30.6 0.00 0.00 0.00 84 1012.5
20260504214604 15 187 19.3 30.6 0.00 0.00 0.00 85 1012.4
20260504214103 15 183 17.7 35.4 0.00 0.00 0.00 85 1012.5
20260504213604 15 179 20.9 37.0 0.00 0.00 0.00 84 1012.5
20260504213103 15 181 24.1 37.0 0.00 0.00 0.00 84 1012.5
20260504212603 15 180 19.3 32.2 0.00 0.00 0.00 84 1012.4
20260504212103 15 180 19.3 33.8 0.00 0.00 0.00 84 1012.4
20260504211604 15 175 24.1 37.0 0.00 0.00 0.00 84 1012.5
20260504211104 15 175 24.1 37.0 0.00 0.00 0.00 83 1012.5
20260504210604 15 174 22.5 37.0 0.00 0.00 0.00 83 1012.4
20260504210104 15 175 22.5 40.2 0.00 0.00 0.00 83 1012.4
20260504205604 15 178 19.3 40.2 0.00 0.00 0.00 83 1012.5
20260504204604 16 181 22.5 35.4 0.00 0.00 0.00 82 1012.5
20260504204104 16 181 20.9 35.4 0.00 0.00 0.00 82 1012.5
20260504203603 16 173 20.9 30.6 0.00 0.00 0.00 83 1012.5
20260504203104 15 176 20.9 27.4 0.00 0.00 0.00 83 1012.4
20260504202604 15 175 19.3 35.4 0.00 0.00 0.00 83 1012.5
20260504202104 15 183 25.7 40.2 0.00 0.00 0.00 83 1012.5
20260504201603 15 183 22.5 40.2 0.00 0.00 0.00 83 1012.5
20260504201125 15 180 20.9 35.4 0.00 0.00 0.00 83 1012.7
20260504200604 15 177 20.9 35.4 0.00 0.00 0.00 83 1012.6
20260504200103 15 172 19.3 35.4 0.00 0.00 0.00 83 1012.7
20260504195604 15 175 24.1 35.4 0.00 0.00 0.00 83 1012.7
20260504195104 15 172 25.7 40.2 0.00 0.00 0.00 82 1012.7
20260504194603 15 170 25.7 40.2 0.00 0.00 0.00 81 1012.8
20260504194104 15 177 20.9 38.6 0.00 0.00 0.00 82 1012.9
20260504193604 15 174 22.5 38.6 0.00 0.00 0.00 82 1012.9
20260504193103 15 179 19.3 33.8 0.00 0.00 0.00 82 1012.9
20260504192604 15 176 22.5 35.4 0.00 0.00 0.00 82 1013.0
20260504192104 15 174 25.7 37.0 0.00 0.00 0.00 81 1012.9
20260504191603 15 174 22.5 37.0 0.00 0.00 0.00 82 1013.0
20260504191104 15 173 22.5 37.0 0.00 0.00 0.00 82 1013.1
20260504190604 15 171 24.1 37.0 0.00 0.00 0.00 81 1013.2
20260504190104 15 172 20.9 37.0 0.00 0.00 0.00 82 1013.3
20260504185604 15 174 25.7 37.0 0.00 0.00 0.00 81 1013.4
20260504185104 16 176 24.1 37.0 0.00 0.00 0.00 80 1013.5
20260504184604 16 168 20.9 35.4 0.00 0.00 0.00 80 1013.5
20260504184103 16 173 24.1 35.4 0.00 0.00 0.00 80 1013.6
20260504183604 16 175 24.1 32.2 0.00 0.00 0.00 79 1013.7
20260504183125 16 177 17.7 32.2 0.00 0.00 0.00 80 1013.8
20260504182603 16 171 20.9 33.8 0.00 0.00 0.00 79 1013.7
20260504182105 16 170 20.9 33.8 0.00 0.00 0.00 79 1013.8
20260504181624 16 178 17.7 32.2 0.00 0.00 0.00 80 1013.9
20260504181104 16 169 19.3 35.4 0.00 0.00 0.00 81 1013.9
20260504180604 16 186 19.3 35.4 0.00 0.00 0.00 81 1014.0
20260504180104 16 183 22.5 38.6 0.00 0.00 0.00 80 1014.0
20260504175605 16 178 17.7 38.6 0.00 0.00 0.00 80 1014.1
20260504175104 16 173 17.7 32.2 0.00 0.00 0.00 81 1014.1
20260504174603 16 168 22.5 33.8 0.00 0.00 0.00 81 1014.2
20260504174104 16 179 20.9 33.8 0.00 0.00 0.00 81 1014.4
20260504173604 16 188 19.3 30.6 0.00 0.00 0.00 81 1014.4
20260504173104 16 169 20.9 32.2 0.00 0.00 0.00 81 1014.5
20260504172604 16 173 20.9 32.2 0.00 0.00 0.00 80 1014.5
20260504172104 16 171 20.9 32.2 0.00 0.00 0.00 81 1014.5
20260504171604 16 178 19.3 33.8 0.00 0.00 0.00 82 1014.6
20260504171124 16 175 19.3 33.8 0.00 0.00 0.00 82 1014.7
20260504170604 15 181 17.7 30.6 0.00 0.00 0.00 83 1014.7
20260504170105 15 180 17.7 32.2 0.00 0.00 0.00 82 1014.7
20260504160103 15 186 17.7 32.2 0.00 0.00 0.00 83 1015.3
20260504151104 15 185 16.1 30.6 0.00 0.00 0.00 82 1015.6
20260504150603 15 183 19.3 29.0 0.00 0.00 0.00 82 1015.7
20260504150104 15 180 20.9 32.2 0.00 0.00 0.00 82 1015.6
20260504141104 14 184 19.3 33.8 0.00 0.00 0.00 84 1015.8
20260504140604 14 180 17.7 33.8 0.00 0.00 0.00 84 1015.9
20260504140104 14 180 16.1 30.6 0.00 0.00 0.00 84 1016.0
20260504130624 14 198 16.1 30.6 0.00 0.00 0.00 81 1016.3
20260504130103 13 183 14.5 27.4 0.00 0.00 0.00 81 1016.4
20260504120124 13 205 11.3 24.1 0.00 0.00 0.00 79 1016.7
20260504110604 11 211 14.5 29.0 0.00 0.00 0.00 84 1017.0
20260504110103 11 218 19.3 29.0 0.00 0.00 0.00 84 1017.0
20260504100603 10 217 17.7 27.4 0.00 0.00 0.00 81 1016.9
20260504100103 10 216 17.7 29.0 0.00 0.00 0.00 81 1016.9
20260504090104 10 215 16.1 27.4 0.00 0.00 0.00 78 1016.8
20260504081603 10 224 17.7 25.7 0.00 0.00 0.00 81 1016.6
20260504081103 10 217 19.3 25.7 0.00 0.00 0.00 82 1016.6
20260504080604 10 226 19.3 27.4 0.00 0.00 0.00 82 1016.6
20260504070103 11 234 14.5 25.7 0.00 0.00 0.00 82 1016.2
20260504060125 11 239 14.5 22.5 0.00 0.00 0.00 83 1016.0
20260504050603 11 235 16.1 22.5 0.00 0.00 0.00 81 1015.8
20260504050103 11 235 14.5 24.1 0.00 0.00 0.00 81 1015.8
20260504045603 11 230 17.7 24.1 0.00 0.00 0.00 81 1015.8
20260504045103 11 229 16.1 22.5 0.00 0.00 0.00 81 1015.7
20260504044606 11 231 16.1 25.7 0.00 0.00 0.00 81 1015.7
20260504044103 11 229 16.1 25.7 0.00 0.00 0.00 80 1015.8
20260504043625 11 226 14.5 24.1 0.00 0.00 0.00 80 1015.8
20260504043103 11 217 16.1 24.1 0.00 0.00 0.00 79 1015.8
20260504042103 11 229 16.1 27.4 0.00 0.00 0.00 79 1015.7
20260504041603 11 229 19.3 27.4 0.00 0.00 0.00 78 1015.7
20260504041103 11 226 14.5 19.3 0.00 0.00 0.00 78 1015.7
20260504040604 11 221 14.5 20.9 0.00 0.00 0.00 78 1015.7
20260504040124 11 222 14.5 20.9 0.00 0.00 0.00 78 1015.6
20260504035603 11 226 12.9 22.5 0.00 0.00 0.00 79 1015.5
20260504035104 11 228 12.9 22.5 0.00 0.00 0.00 77 1015.5
20260504034103 11 223 12.9 19.3 0.00 0.00 0.00 75 1015.4
20260504033603 11 226 12.9 20.9 0.00 0.00 0.00 75 1015.4
20260504033103 11 221 11.3 20.9 0.00 0.00 0.00 75 1015.4
20260504032604 11 226 12.9 20.9 0.00 0.00 0.00 74 1015.4
20260504032103 11 230 16.1 20.9 0.00 0.00 0.00 74 1015.4
20260504031603 11 233 12.9 22.5 0.00 0.00 0.00 74 1015.4
20260504031103 11 238 12.9 22.5 0.00 0.00 0.00 74 1015.4
20260504030603 11 228 16.1 19.3 0.00 0.00 0.00 73 1015.4
20260504025603 11 232 12.9 20.9 0.00 0.00 0.00 72 1015.3
20260504025146 11 237 12.9 20.9 0.00 0.00 0.00 72 1015.3
20260504024603 11 240 14.5 20.9 0.00 0.00 0.00 70 1015.3
20260504024103 11 241 14.5 20.9 0.00 0.00 0.00 71 1015.4
20260504023604 11 237 12.9 20.9 0.00 0.00 0.00 71 1015.3
20260504023104 11 233 12.9 19.3 0.00 0.00 0.00 72 1015.3
20260504022624 11 234 12.9 20.9 0.00 0.00 0.00 73 1015.3
20260504022103 11 230 14.5 20.9 0.00 0.00 0.00 74 1015.3
20260504021604 11 224 14.5 20.9 0.00 0.00 0.00 74 1015.3
20260504021103 11 230 12.9 19.3 0.00 0.00 0.00 74 1015.3
20260504020604 11 231 12.9 19.3 0.00 0.00 0.00 74 1015.3
20260504020103 11 229 12.9 19.3 0.00 0.00 0.00 73 1015.3
20260504015603 11 231 12.9 19.3 0.00 0.00 0.00 72 1015.2
20260504015104 11 229 12.9 19.3 0.00 0.00 0.00 71 1015.2
20260504014603 11 226 12.9 17.7 0.00 0.00 0.00 72 1015.2
20260504014103 11 233 11.3 17.7 0.00 0.00 0.00 74 1015.1
20260504013603 11 229 11.3 17.7 0.00 0.00 0.00 74 1015.1
20260504013124 11 230 12.9 20.9 0.00 0.00 0.00 73 1015.1
20260504012604 12 225 12.9 20.9 0.00 0.00 0.00 73 1015.0
20260504012103 11 229 14.5 19.3 0.00 0.00 0.00 70 1015.0
20260504011604 11 228 11.3 17.7 0.00 0.00 0.00 72 1015.0
20260504011103 12 234 12.9 16.1 0.00 0.00 0.00 74 1014.9
20260504010603 12 234 9.7 17.7 0.00 0.00 0.00 71 1014.8
20260504005604 12 232 12.9 17.7 0.00 0.00 0.00 67 1014.5
20260504005103 12 234 9.7 14.5 0.00 0.00 0.00 69 1014.5